Location: Boleita
(10.4833°N, 66.8167°W)
Time: 04:17:52
(UTC+00:00)

Okean 1 Rocket - Pass Details

Date: 03 August 2024
Orbit: 602 x 630 km, 82.5° (Epoch: 08 September)

Event Time Altitude Azimuth Distance (km) Brightness Sun altitude
Rises 23:11:34 0° 345° (NNW) 2,892 7.0 -5.9°
Reaches altitude 10° 23:13:52 10° 339° (NNW) 1,982 6.3 -6.4°
Maximum altitude 23:18:01 43° 268° (W) 863 4.4 -7.4°
Drops below altitude 10° 23:22:10 10° 195° (SSW) 1,965 5.6 -8.3°
Sets 23:24:27 0° 189° (S) 2,864 6.4 -8.8°
